Time,TemperatureF,DewpointF,PressureIn,WindDirection,WindDirectionDegrees,WindSpeedMPH,WindSpeedGustMPH,Humidity,HourlyPrecipIn,Conditions,Clouds,dailyrainin,SoftwareType,DateUTC
2013-02-24 00:00:00,45.4,44.6,29.83,SW,225,0.0,0.9,97,0.00,,---,0.43,VWS V14.01,2013-02-24 05:00:00,
2013-02-24 00:05:00,45.4,44.6,29.83,SSE,158,0.0,0.0,97,0.00,,---,0.00,VWS V14.01,2013-02-24 05:05:00,
2013-02-24 00:10:00,45.4,44.6,29.81,South,180,0.3,0.4,97,0.00,,---,0.00,VWS V14.01,2013-02-24 05:10:00,
2013-02-24 00:15:00,45.4,44.6,29.77,South,180,0.3,0.4,97,0.00,,---,0.00,VWS V14.01,2013-02-24 05:15:00,
2013-02-24 00:20:00,45.4,44.6,29.79,South,180,0.3,0.4,97,0.00,,---,0.00,VWS V14.01,2013-02-24 05:20:00,
2013-02-24 00:25:00,45.4,44.6,29.80,SSE,158,0.3,0.4,97,0.00,,---,0.00,VWS V14.01,2013-02-24 05:25:00,
2013-02-24 00:30:00,45.4,44.6,29.80,West,270,0.7,0.9,97,0.00,,---,0.00,VWS V14.01,2013-02-24 05:30:00,
2013-02-24 00:35:00,45.4,44.6,29.82,NNW,338,0.0,1.9,97,0.00,,---,0.00,VWS V14.01,2013-02-24 05:35:00,
2013-02-24 00:40:00,45.4,44.6,29.80,NNW,338,0.0,0.0,97,0.00,,---,0.00,VWS V14.01,2013-02-24 05:40:00,
2013-02-24 00:45:00,45.4,44.6,29.80,NNW,338,0.0,0.0,97,0.00,,---,0.00,VWS V14.01,2013-02-24 05:45:00,
2013-02-24 00:50:00,45.4,44.6,29.81,NNW,338,0.0,0.0,97,0.00,,---,0.00,VWS V14.01,2013-02-24 05:50:00,
2013-02-24 00:55:00,45.4,44.6,29.80,ESE,112,1.8,2.4,97,0.00,,---,0.00,VWS V14.01,2013-02-24 05:55:00,
2013-02-24 01:00:00,45.4,44.6,29.81,WNW,292,0.0,0.0,97,0.01,,---,0.01,VWS V14.01,2013-02-24 06:00:00,
2013-02-24 01:05:00,45.4,44.6,29.79,East,90,1.2,1.5,97,0.01,,---,0.01,VWS V14.01,2013-02-24 06:05:00,
2013-02-24 01:10:00,45.4,44.6,29.79,East,90,0.0,0.0,97,0.01,,---,0.01,VWS V14.01,2013-02-24 06:10:00,
2013-02-24 01:15:00,45.4,44.6,29.80,West,270,1.8,2.4,97,0.01,,---,0.01,VWS V14.01,2013-02-24 06:15:00,
2013-02-24 01:20:00,45.4,44.6,29.79,WNW,292,0.0,0.0,97,0.01,,---,0.01,VWS V14.01,2013-02-24 06:20:00,
2013-02-24 01:25:00,45.4,44.6,29.79,WNW,292,0.3,0.4,97,0.01,,---,0.01,VWS V14.01,2013-02-24 06:25:00,
2013-02-24 01:30:00,45.4,44.6,29.80,NNW,338,0.7,0.9,97,0.01,,---,0.01,VWS V14.01,2013-02-24 06:30:00,
2013-02-24 01:35:00,45.6,44.8,29.79,NNW,338,1.8,2.4,97,0.01,,---,0.01,VWS V14.01,2013-02-24 06:35:00,
2013-02-24 01:40:00,45.4,44.6,29.79,North,0,1.8,2.4,97,0.01,,---,0.01,VWS V14.01,2013-02-24 06:40:00,
2013-02-24 01:45:00,45.4,44.6,29.79,NNW,338,3.0,3.9,97,0.01,,---,0.01,VWS V14.01,2013-02-24 06:45:00,
2013-02-24 01:50:00,45.4,44.6,29.79,NNW,338,1.2,1.5,97,0.01,,---,0.01,VWS V14.01,2013-02-24 06:50:00,
2013-02-24 01:55:00,45.4,44.6,29.79,NNW,338,0.3,0.4,97,0.01,,---,0.01,VWS V14.01,2013-02-24 06:55:00,
2013-02-24 02:00:00,45.4,44.6,29.79,North,0,1.2,1.5,97,0.00,,---,0.01,VWS V14.01,2013-02-24 07:00:00,
2013-02-24 02:05:00,45.4,44.6,29.79,NW,315,1.2,1.5,97,0.00,,---,0.01,VWS V14.01,2013-02-24 07:05:00,
2013-02-24 02:10:00,45.4,44.6,29.78,NW,315,1.2,1.5,97,0.00,,---,0.01,VWS V14.01,2013-02-24 07:10:00,
2013-02-24 02:15:00,45.4,44.6,29.79,NW,315,1.2,1.5,97,0.00,,---,0.01,VWS V14.01,2013-02-24 07:15:00,
2013-02-24 02:20:00,45.2,44.4,29.79,NNW,338,0.7,0.9,97,0.00,,---,0.01,VWS V14.01,2013-02-24 07:20:00,
2013-02-24 02:25:00,45.2,44.4,29.78,NNW,338,0.7,0.9,97,0.00,,---,0.01,VWS V14.01,2013-02-24 07:25:00,
2013-02-24 02:30:00,45.2,44.4,29.79,North,0,0.0,0.0,97,0.00,,---,0.01,VWS V14.01,2013-02-24 07:30:00,
2013-02-24 02:35:00,45.2,44.4,29.78,North,0,2.6,3.4,97,0.00,,---,0.01,VWS V14.01,2013-02-24 07:35:00,
2013-02-24 02:40:00,45.2,44.4,29.78,North,0,2.6,3.4,97,0.00,,---,0.01,VWS V14.01,2013-02-24 07:40:00,
2013-02-24 02:45:00,45.2,44.4,29.77,North,0,2.6,3.4,97,0.00,,---,0.01,VWS V14.01,2013-02-24 07:45:00,
2013-02-24 02:50:00,45.2,44.4,29.77,North,0,2.6,3.4,97,0.00,,---,0.01,VWS V14.01,2013-02-24 07:50:00,
2013-02-24 02:55:00,45.0,44.5,29.77,North,0,0.7,0.9,98,0.00,,---,0.01,VWS V14.01,2013-02-24 07:55:00,
2013-02-24 03:00:00,45.0,44.5,29.77,NNW,338,0.3,0.4,98,0.00,,---,0.01,VWS V14.01,2013-02-24 08:00:00,
2013-02-24 03:05:00,45.0,44.5,29.77,NW,315,0.3,0.4,98,0.00,,---,0.01,VWS V14.01,2013-02-24 08:05:00,
2013-02-24 03:10:00,45.0,44.5,29.77,NNW,338,1.8,2.4,98,0.00,,---,0.01,VWS V14.01,2013-02-24 08:10:00,
2013-02-24 03:15:00,45.0,44.5,29.77,WNW,292,0.3,0.4,98,0.00,,---,0.01,VWS V14.01,2013-02-24 08:15:00,
2013-02-24 03:20:00,45.0,44.4,29.77,NNW,338,0.0,0.0,98,0.00,,---,0.01,VWS V14.01,2013-02-24 08:20:00,
2013-02-24 03:25:00,45.0,44.4,29.77,NNW,338,0.0,0.0,98,0.00,,---,0.01,VWS V14.01,2013-02-24 08:25:00,
2013-02-24 03:30:00,45.0,44.4,29.77,NNW,338,0.0,0.0,98,0.00,,---,0.01,VWS V14.01,2013-02-24 08:30:00,
2013-02-24 03:35:00,45.0,44.4,29.77,NNW,338,0.0,0.0,98,0.00,,---,0.01,VWS V14.01,2013-02-24 08:35:00,
2013-02-24 03:40:00,45.0,44.4,29.77,WNW,292,1.2,1.5,98,0.00,,---,0.01,VWS V14.01,2013-02-24 08:40:00,
2013-02-24 03:45:00,45.0,44.4,29.77,WSW,248,1.2,1.5,98,0.00,,---,0.01,VWS V14.01,2013-02-24 08:45:00,
2013-02-24 03:50:00,45.0,44.4,29.77,WNW,292,1.2,1.5,98,0.00,,---,0.01,VWS V14.01,2013-02-24 08:50:00,
2013-02-24 03:55:00,45.0,44.4,29.77,NW,315,0.7,3.9,98,0.00,,---,0.01,VWS V14.01,2013-02-24 08:55:00,
2013-02-24 04:00:00,45.0,44.4,29.77,NW,315,1.8,2.4,98,0.00,,---,0.01,VWS V14.01,2013-02-24 09:00:00,
2013-02-24 04:05:00,44.8,44.2,29.77,NNW,338,0.3,1.9,98,0.00,,---,0.01,VWS V14.01,2013-02-24 09:05:00,
2013-02-24 04:10:00,44.8,44.2,29.78,WNW,292,1.2,1.5,98,0.00,,---,0.01,VWS V14.01,2013-02-24 09:10:00,
2013-02-24 04:15:00,44.8,44.2,29.78,WNW,292,1.8,2.4,98,0.00,,---,0.01,VWS V14.01,2013-02-24 09:15:00,
2013-02-24 04:20:00,44.8,44.2,29.79,NNW,338,2.1,2.8,98,0.00,,---,0.01,VWS V14.01,2013-02-24 09:20:00,
2013-02-24 04:25:00,44.5,44.0,29.79,NNW,338,0.3,1.9,98,0.00,,---,0.01,VWS V14.01,2013-02-24 09:25:00,
2013-02-24 04:30:00,44.8,44.2,29.79,NW,315,1.8,2.4,98,0.00,,---,0.01,VWS V14.01,2013-02-24 09:30:00,
2013-02-24 04:35:00,44.8,44.2,29.79,NW,315,1.5,1.9,98,0.00,,---,0.01,VWS V14.01,2013-02-24 09:35:00,
2013-02-24 04:40:00,44.8,44.2,29.79,West,270,3.0,3.9,98,0.00,,---,0.01,VWS V14.01,2013-02-24 09:40:00,
2013-02-24 04:45:00,44.8,44.2,29.79,WNW,292,1.5,1.9,98,0.00,,---,0.01,VWS V14.01,2013-02-24 09:45:00,
2013-02-24 04:50:00,44.8,44.2,29.80,WNW,292,1.2,1.5,98,0.00,,---,0.01,VWS V14.01,2013-02-24 09:50:00,
2013-02-24 04:55:00,44.8,44.2,29.80,North,0,2.1,2.8,98,0.00,,---,0.01,VWS V14.01,2013-02-24 09:55:00,
2013-02-24 05:00:00,44.8,44.2,29.80,NW,315,1.5,1.9,98,0.00,,---,0.01,VWS V14.01,2013-02-24 10:00:00,
2013-02-24 05:05:00,44.8,44.2,29.80,WSW,248,3.0,3.9,98,0.00,,---,0.01,VWS V14.01,2013-02-24 10:05:00,
2013-02-24 05:10:00,44.8,44.2,29.80,NW,315,0.7,0.9,98,0.00,,---,0.01,VWS V14.01,2013-02-24 10:10:00,
2013-02-24 05:15:00,44.8,44.2,29.81,NW,315,1.8,2.4,98,0.00,,---,0.01,VWS V14.01,2013-02-24 10:15:00,
2013-02-24 05:20:00,44.8,44.2,29.81,NW,315,1.8,2.4,98,0.00,,---,0.01,VWS V14.01,2013-02-24 10:20:00,
2013-02-24 05:25:00,44.8,44.2,29.81,NW,315,1.8,2.4,98,0.00,,---,0.01,VWS V14.01,2013-02-24 10:25:00,
2013-02-24 05:30:00,44.8,44.2,29.81,WNW,292,1.8,2.8,98,0.00,,---,0.01,VWS V14.01,2013-02-24 10:30:00,
2013-02-24 05:35:00,44.8,44.2,29.81,WNW,292,1.2,1.5,98,0.00,,---,0.01,VWS V14.01,2013-02-24 10:35:00,
2013-02-24 05:40:00,44.8,44.2,29.81,WNW,292,1.5,1.9,98,0.00,,---,0.01,VWS V14.01,2013-02-24 10:40:00,
2013-02-24 05:45:00,44.8,44.2,29.81,North,0,1.2,1.5,98,0.00,,---,0.01,VWS V14.01,2013-02-24 10:45:00,
2013-02-24 05:50:00,44.8,44.2,29.81,WNW,292,0.0,0.0,98,0.00,,---,0.01,VWS V14.01,2013-02-24 10:50:00,
2013-02-24 05:55:00,44.8,44.2,29.82,NW,315,1.8,3.9,98,0.00,,---,0.01,VWS V14.01,2013-02-24 10:55:00,
2013-02-24 06:00:00,44.8,44.2,29.82,North,0,1.8,2.4,98,0.00,,---,0.01,VWS V14.01,2013-02-24 11:00:00,
2013-02-24 06:05:00,44.8,44.2,29.82,NW,315,0.7,0.9,98,0.00,,---,0.01,VWS V14.01,2013-02-24 11:05:00,
2013-02-24 06:10:00,44.8,44.2,29.81,NW,315,0.0,0.0,98,0.00,,---,0.01,VWS V14.01,2013-02-24 11:10:00,
2013-02-24 06:15:00,44.8,44.2,29.81,WNW,292,0.3,0.4,98,0.00,,---,0.01,VWS V14.01,2013-02-24 11:15:00,
2013-02-24 06:20:00,44.8,44.2,29.82,WNW,292,0.3,0.4,98,0.00,,---,0.01,VWS V14.01,2013-02-24 11:20:00,
2013-02-24 06:25:00,44.8,44.2,29.82,WNW,292,0.3,0.4,98,0.00,,---,0.01,VWS V14.01,2013-02-24 11:25:00,
2013-02-24 06:30:00,44.8,44.2,29.82,West,270,0.3,0.4,98,0.00,,---,0.01,VWS V14.01,2013-02-24 11:30:00,
2013-02-24 06:35:00,44.8,44.2,29.82,NW,315,0.0,0.9,98,0.00,,---,0.01,VWS V14.01,2013-02-24 11:35:00,
2013-02-24 06:40:00,44.8,44.2,29.83,WNW,292,1.2,1.5,98,0.00,,---,0.01,VWS V14.01,2013-02-24 11:40:00,
2013-02-24 06:45:00,44.8,44.2,29.83,NW,315,0.7,0.9,98,0.00,,---,0.01,VWS V14.01,2013-02-24 11:45:00,
2013-02-24 06:50:00,44.8,44.2,29.84,NW,315,0.7,0.9,98,0.00,,---,0.01,VWS V14.01,2013-02-24 11:50:00,
2013-02-24 06:55:00,45.0,44.4,29.84,NW,315,0.0,1.5,98,0.00,,---,0.01,VWS V14.01,2013-02-24 11:55:00,
2013-02-24 07:00:00,45.0,44.4,29.84,NW,315,0.7,0.9,98,0.00,,---,0.01,VWS V14.01,2013-02-24 12:00:00,
2013-02-24 07:05:00,45.0,44.4,29.84,West,270,0.7,0.9,98,0.00,,---,0.01,VWS V14.01,2013-02-24 12:05:00,
2013-02-24 07:10:00,45.0,44.4,29.84,WNW,292,0.3,0.4,98,0.00,,---,0.01,VWS V14.01,2013-02-24 12:10:00,
2013-02-24 07:15:00,45.0,44.4,29.84,NW,315,0.7,0.9,98,0.00,,---,0.01,VWS V14.01,2013-02-24 12:15:00,
2013-02-24 07:20:00,45.0,44.4,29.85,NW,315,0.7,0.9,98,0.00,,---,0.01,VWS V14.01,2013-02-24 12:20:00,
2013-02-24 07:25:00,45.0,44.4,29.85,NW,315,0.7,0.9,98,0.00,,---,0.01,VWS V14.01,2013-02-24 12:25:00,
2013-02-24 07:30:00,45.0,44.5,29.85,WNW,292,0.7,0.9,98,0.00,,---,0.01,VWS V14.01,2013-02-24 12:30:00,
2013-02-24 07:36:00,45.0,44.5,29.86,WNW,292,0.7,0.9,98,0.00,,---,0.01,VWS V14.01,2013-02-24 12:36:00,
2013-02-24 07:41:00,45.2,44.7,29.86,WNW,292,0.7,0.9,98,0.00,,---,0.01,VWS V14.01,2013-02-24 12:41:00,
2013-02-24 07:46:00,45.2,44.7,29.86,WSW,248,3.3,4.3,98,0.00,,---,0.01,VWS V14.01,2013-02-24 12:46:00,
2013-02-24 07:51:00,45.2,44.7,29.87,WNW,292,4.1,5.4,98,0.00,,---,0.01,VWS V14.01,2013-02-24 12:51:00,
2013-02-24 07:56:00,45.2,44.7,29.87,WNW,292,4.1,5.4,98,0.00,,---,0.01,VWS V14.01,2013-02-24 12:56:00,
2013-02-24 08:01:00,45.2,44.7,29.88,WNW,292,4.1,5.4,98,0.00,,---,0.01,VWS V14.01,2013-02-24 13:01:00,
2013-02-24 08:06:00,45.2,44.7,29.88,WNW,292,4.1,5.4,98,0.00,,---,0.01,VWS V14.01,2013-02-24 13:06:00,
2013-02-24 08:11:00,45.6,45.1,29.88,NW,315,1.8,2.4,98,0.00,,---,0.01,VWS V14.01,2013-02-24 13:11:00,
2013-02-24 08:16:00,45.8,45.3,29.88,NW,315,3.0,3.9,98,0.00,,---,0.01,VWS V14.01,2013-02-24 13:16:00,
2013-02-24 08:21:00,45.8,45.3,29.88,WSW,248,1.8,2.4,98,0.00,,---,0.01,VWS V14.01,2013-02-24 13:21:00,
2013-02-24 08:26:00,45.9,45.4,29.88,NW,315,2.6,3.4,98,0.00,,---,0.01,VWS V14.01,2013-02-24 13:26:00,
2013-02-24 08:31:00,45.9,45.4,29.89,NW,315,2.6,3.4,98,0.00,,---,0.01,VWS V14.01,2013-02-24 13:31:00,
2013-02-24 08:36:00,45.9,45.4,29.89,NW,315,2.6,3.4,98,0.00,,---,0.01,VWS V14.01,2013-02-24 13:36:00,
2013-02-24 08:41:00,46.1,45.6,29.89,SW,225,3.6,4.7,98,0.00,,---,0.01,VWS V14.01,2013-02-24 13:41:00,
2013-02-24 08:46:00,46.1,45.6,29.89,NNW,338,4.1,5.4,98,0.00,,---,0.01,VWS V14.01,2013-02-24 13:46:00,
2013-02-24 08:51:00,46.1,45.6,29.89,North,0,3.0,3.9,98,0.00,,---,0.01,VWS V14.01,2013-02-24 13:51:00,
2013-02-24 08:56:00,46.5,46.0,29.90,NNW,338,3.0,3.9,98,0.00,,---,0.01,VWS V14.01,2013-02-24 13:56:00,
2013-02-24 09:01:00,46.5,46.2,29.89,NNW,338,1.5,1.9,99,0.00,,---,0.01,VWS V14.01,2013-02-24 14:01:00,
2013-02-24 09:06:00,46.7,46.4,29.90,WNW,292,1.5,1.9,99,0.00,,---,0.01,VWS V14.01,2013-02-24 14:06:00,
2013-02-24 09:11:00,46.7,46.4,29.90,WNW,292,2.1,2.8,99,0.00,,---,0.01,VWS V14.01,2013-02-24 14:11:00,
2013-02-24 09:16:00,47.0,46.7,29.90,North,0,1.8,3.4,99,0.00,,---,0.01,VWS V14.01,2013-02-24 14:16:00,
2013-02-24 09:21:00,47.0,46.5,29.90,NNW,338,1.2,2.8,98,0.00,,---,0.01,VWS V14.01,2013-02-24 14:21:00,
2013-02-24 09:26:00,47.2,46.7,29.91,North,0,3.0,3.9,98,0.00,,---,0.01,VWS V14.01,2013-02-24 14:26:00,
2013-02-24 09:31:00,47.2,46.7,29.91,WNW,292,1.8,2.4,98,0.00,,---,0.01,VWS V14.01,2013-02-24 14:31:00,
2013-02-24 09:36:00,47.4,46.8,29.91,NNW,338,0.7,3.4,98,0.00,,---,0.01,VWS V14.01,2013-02-24 14:36:00,
2013-02-24 09:41:00,47.4,46.8,29.92,North,0,0.7,0.9,98,0.00,,---,0.01,VWS V14.01,2013-02-24 14:41:00,
2013-02-24 09:46:00,47.4,46.8,29.92,North,0,0.7,0.9,98,0.00,,---,0.01,VWS V14.01,2013-02-24 14:46:00,
2013-02-24 09:51:00,47.4,46.8,29.92,North,0,0.7,0.9,98,0.00,,---,0.01,VWS V14.01,2013-02-24 14:51:00,
2013-02-24 09:56:00,47.7,47.1,29.92,WNW,292,4.5,5.8,98,0.00,,---,0.01,VWS V14.01,2013-02-24 14:56:00,
2013-02-24 10:01:00,47.9,47.1,29.92,WSW,248,2.6,3.4,97,0.00,,---,0.01,VWS V14.01,2013-02-24 15:01:00,
2013-02-24 10:06:00,47.9,47.1,29.92,WSW,248,2.6,3.4,97,0.00,,---,0.01,VWS V14.01,2013-02-24 15:06:00,
2013-02-24 10:11:00,47.9,47.1,29.92,WSW,248,2.6,3.4,97,0.00,,---,0.01,VWS V14.01,2013-02-24 15:11:00,
2013-02-24 10:16:00,48.5,47.7,29.91,NNW,338,1.8,5.4,97,0.00,,---,0.01,VWS V14.01,2013-02-24 15:16:00,
2013-02-24 10:21:00,48.8,47.7,29.91,WNW,292,7.8,10.1,96,0.00,,---,0.01,VWS V14.01,2013-02-24 15:21:00,
2013-02-24 10:26:00,49.5,48.3,29.91,North,0,3.0,3.9,96,0.00,,---,0.01,VWS V14.01,2013-02-24 15:26:00,
2013-02-24 10:31:00,49.9,48.5,29.91,North,0,3.0,3.9,95,0.00,,---,0.01,VWS V14.01,2013-02-24 15:31:00,
2013-02-24 10:36:00,50.4,48.7,29.91,NNW,338,1.2,9.7,94,0.00,,---,0.01,VWS V14.01,2013-02-24 15:36:00,
2013-02-24 10:41:00,51.0,49.2,29.91,NNW,338,3.0,3.9,94,0.00,,---,0.00,VWS V14.01,2013-02-24 15:41:00,
2013-02-24 10:46:00,51.3,49.5,29.91,NNW,338,4.8,6.2,94,0.00,,---,0.01,VWS V14.01,2013-02-24 15:46:00,
2013-02-24 10:51:00,52.2,50.1,29.91,North,0,4.1,8.6,93,0.00,,---,0.01,VWS V14.01,2013-02-24 15:51:00,
2013-02-24 10:56:00,52.6,49.9,29.91,NNW,338,3.6,4.7,91,0.00,,---,0.01,VWS V14.01,2013-02-24 15:56:00,
2013-02-24 11:01:00,53.1,50.1,29.91,NNW,338,0.7,5.4,90,0.00,,---,0.01,VWS V14.01,2013-02-24 16:01:00,
2013-02-24 11:06:00,53.9,50.6,29.91,WNW,292,3.3,4.3,89,0.00,,---,0.01,VWS V14.01,2013-02-24 16:06:00,
2013-02-24 11:11:00,54.3,51.1,29.91,NNW,338,10.4,13.5,89,0.00,,---,0.01,VWS V14.01,2013-02-24 16:11:00,
2013-02-24 11:16:00,54.8,50.3,29.91,NW,315,6.3,8.2,84,0.00,,---,0.01,VWS V14.01,2013-02-24 16:16:00,
2013-02-24 11:21:00,55.0,51.1,29.92,NNW,338,4.1,8.2,87,0.00,,---,0.01,VWS V14.01,2013-02-24 16:21:00,
2013-02-24 11:26:00,55.7,51.5,29.92,WSW,248,4.5,5.8,85,0.00,,---,0.01,VWS V14.01,2013-02-24 16:26:00,
2013-02-24 11:31:00,55.9,51.7,29.92,West,270,3.6,4.7,85,0.00,,---,0.01,VWS V14.01,2013-02-24 16:31:00,
2013-02-24 11:36:00,56.5,51.9,29.92,WSW,248,4.1,5.4,84,0.00,,---,0.01,VWS V14.01,2013-02-24 16:36:00,
2013-02-24 11:41:00,57.0,51.7,29.92,WNW,292,2.6,5.4,82,0.00,,---,0.01,VWS V14.01,2013-02-24 16:41:00,
2013-02-24 11:46:00,57.4,51.8,29.92,West,270,2.1,3.9,81,0.00,,---,0.01,VWS V14.01,2013-02-24 16:46:00,
2013-02-24 11:51:00,57.5,51.5,29.92,North,0,3.0,4.3,80,0.00,,---,0.01,VWS V14.01,2013-02-24 16:51:00,
2013-02-24 11:57:00,58.1,51.0,29.91,NW,315,5.1,6.7,77,0.00,,---,0.01,VWS V14.01,2013-02-24 16:57:00,
2013-02-24 12:02:00,58.8,51.7,29.91,WNW,292,3.0,5.4,77,0.00,,---,0.01,VWS V14.01,2013-02-24 17:02:00,
2013-02-24 12:07:00,59.0,51.9,29.91,WNW,292,3.3,4.3,77,0.00,,---,0.01,VWS V14.01,2013-02-24 17:07:00,
2013-02-24 12:12:00,59.5,51.7,29.90,WNW,292,2.1,2.8,75,0.00,,---,0.01,VWS V14.01,2013-02-24 17:12:00,
2013-02-24 12:17:00,60.2,51.9,29.90,NW,315,5.6,7.3,74,0.00,,---,0.01,VWS V14.01,2013-02-24 17:17:00,
2013-02-24 12:22:00,60.2,52.3,29.90,West,270,3.0,3.9,75,0.00,,---,0.01,VWS V14.01,2013-02-24 17:22:00,
2013-02-24 12:27:00,61.0,52.7,29.91,NNW,338,3.3,4.3,74,0.00,,---,0.01,VWS V14.01,2013-02-24 17:27:00,
2013-02-24 12:32:00,61.0,51.5,29.90,North,0,6.3,8.2,71,0.00,,---,0.01,VWS V14.01,2013-02-24 17:32:00,
2013-02-24 12:37:00,61.1,51.7,29.90,WSW,248,3.0,3.9,71,0.00,,---,0.01,VWS V14.01,2013-02-24 17:37:00,
2013-02-24 12:42:00,61.3,51.8,29.89,NW,315,3.6,5.8,71,0.00,,---,0.01,VWS V14.01,2013-02-24 17:42:00,
2013-02-24 12:47:00,62.0,51.3,29.89,NNW,338,5.1,6.7,68,0.00,,---,0.01,VWS V14.01,2013-02-24 17:47:00,
2013-02-24 12:52:00,62.2,51.9,29.89,NW,315,1.5,1.9,69,0.00,,---,0.01,VWS V14.01,2013-02-24 17:52:00,
2013-02-24 12:57:00,62.2,51.1,29.89,North,0,2.6,3.4,67,0.00,,---,0.01,VWS V14.01,2013-02-24 17:57:00,
2013-02-24 13:02:00,62.9,50.0,29.89,NW,315,11.4,14.8,63,0.00,,---,0.01,VWS V14.01,2013-02-24 18:02:00,
2013-02-24 13:07:00,62.4,50.8,29.89,NE,45,6.3,14.8,66,0.00,,---,0.01,VWS V14.01,2013-02-24 18:07:00,
2013-02-24 13:12:00,62.4,51.3,29.89,NW,315,2.1,2.8,67,0.00,,---,0.01,VWS V14.01,2013-02-24 18:12:00,
2013-02-24 13:17:00,63.3,51.7,29.89,North,0,4.1,8.6,66,0.00,,---,0.01,VWS V14.01,2013-02-24 18:17:00,
2013-02-24 13:22:00,63.7,50.8,29.89,NW,315,6.6,8.6,63,0.00,,---,0.01,VWS V14.01,2013-02-24 18:22:00,
2013-02-24 13:27:00,63.8,50.9,29.89,NW,315,4.8,6.2,63,0.00,,---,0.01,VWS V14.01,2013-02-24 18:27:00,
2013-02-24 13:32:00,63.8,51.7,29.89,NNW,338,1.2,1.5,65,0.00,,---,0.01,VWS V14.01,2013-02-24 18:32:00,
2013-02-24 13:37:00,64.3,51.9,29.88,North,0,2.6,3.4,64,0.00,,---,0.01,VWS V14.01,2013-02-24 18:37:00,
2013-02-24 13:42:00,64.6,51.6,29.88,WNW,292,3.0,3.9,63,0.00,,---,0.01,VWS V14.01,2013-02-24 18:42:00,
2013-02-24 13:47:00,64.6,50.7,29.88,WSW,248,2.6,3.4,61,0.00,,---,0.01,VWS V14.01,2013-02-24 18:47:00,
2013-02-24 13:52:00,64.6,49.8,29.88,WNW,292,5.6,7.3,59,0.00,,---,0.01,VWS V14.01,2013-02-24 18:52:00,
2013-02-24 13:57:00,64.8,49.1,29.88,NW,315,4.8,9.2,57,0.00,,---,0.01,VWS V14.01,2013-02-24 18:57:00,
2013-02-24 14:02:00,64.8,50.5,29.88,NNW,338,4.1,6.2,60,0.00,,---,0.01,VWS V14.01,2013-02-24 19:02:00,
2013-02-24 14:07:00,64.7,49.4,29.88,NNW,338,1.2,1.5,58,0.00,,---,0.01,VWS V14.01,2013-02-24 19:07:00,
2013-02-24 14:12:00,65.0,50.2,29.88,NNW,338,2.6,3.4,59,0.00,,---,0.01,VWS V14.01,2013-02-24 19:12:00,
2013-02-24 14:17:00,65.4,48.7,29.88,NNW,338,3.3,5.4,55,0.00,,---,0.01,VWS V14.01,2013-02-24 19:17:00,
2013-02-24 14:22:00,65.5,50.2,29.87,North,0,7.1,9.2,58,0.00,,---,0.01,VWS V14.01,2013-02-24 19:22:00,
2013-02-24 14:27:00,65.7,49.4,29.88,North,0,3.3,4.3,56,0.00,,---,0.01,VWS V14.01,2013-02-24 19:27:00,
2013-02-24 14:32:00,66.3,49.0,29.87,WNW,292,3.6,4.7,54,0.00,,---,0.01,VWS V14.01,2013-02-24 19:32:00,
2013-02-24 14:37:00,66.3,50.0,29.87,NNE,22,3.0,4.7,56,0.00,,---,0.01,VWS V14.01,2013-02-24 19:37:00,
2013-02-24 14:42:00,66.4,49.6,29.87,NNW,338,1.2,1.5,55,0.00,,---,0.01,VWS V14.01,2013-02-24 19:42:00,
2013-02-24 14:47:00,67.3,50.4,29.87,NW,315,1.8,2.8,55,0.00,,---,0.01,VWS V14.01,2013-02-24 19:47:00,
2013-02-24 14:52:00,67.0,46.4,29.87,NNW,338,5.6,7.3,47,0.00,,---,0.01,VWS V14.01,2013-02-24 19:52:00,
2013-02-24 14:57:00,66.4,49.1,29.87,NNE,22,3.0,3.9,54,0.00,,---,0.01,VWS V14.01,2013-02-24 19:57:00,
2013-02-24 15:02:00,66.1,48.3,29.87,North,0,3.6,4.7,53,0.00,,---,0.01,VWS V14.01,2013-02-24 20:02:00,
2013-02-24 15:07:00,66.6,49.3,29.87,WNW,292,7.1,9.2,54,0.00,,---,0.01,VWS V14.01,2013-02-24 20:07:00,
2013-02-24 15:12:00,66.6,48.7,29.87,North,0,1.8,9.2,53,0.00,,---,0.01,VWS V14.01,2013-02-24 20:12:00,
2013-02-24 15:17:00,66.6,47.7,29.87,NNW,338,3.3,4.3,50,0.00,,---,0.01,VWS V14.01,2013-02-24 20:17:00,
2013-02-24 15:22:00,66.8,49.4,29.87,North,0,1.8,2.8,54,0.00,,---,0.01,VWS V14.01,2013-02-24 20:22:00,
2013-02-24 15:27:00,67.0,48.6,29.88,SW,225,1.8,2.4,52,0.00,,---,0.01,VWS V14.01,2013-02-24 20:27:00,
2013-02-24 15:32:00,67.3,48.8,29.88,NNW,338,7.8,10.1,52,0.00,,---,0.01,VWS V14.01,2013-02-24 20:32:00,
2013-02-24 15:37:00,67.3,47.8,29.88,WNW,292,4.5,5.8,49,0.00,,---,0.01,VWS V14.01,2013-02-24 20:37:00,
2013-02-24 15:42:00,66.8,47.3,29.88,West,270,1.2,8.2,49,0.00,,---,0.01,VWS V14.01,2013-02-24 20:42:00,
2013-02-24 15:47:00,67.0,47.5,29.88,WSW,248,1.5,1.9,49,0.00,,---,0.01,VWS V14.01,2013-02-24 20:47:00,
2013-02-24 15:52:00,67.9,48.9,29.88,NNW,338,3.3,4.3,50,0.00,,---,0.01,VWS V14.01,2013-02-24 20:52:00,
2013-02-24 15:57:00,68.1,49.6,29.88,NNW,338,3.6,4.7,52,0.00,,---,0.01,VWS V14.01,2013-02-24 20:57:00,
2013-02-24 16:02:00,67.9,49.4,29.88,NW,315,3.0,4.7,52,0.00,,---,0.01,VWS V14.01,2013-02-24 21:02:00,
2013-02-24 16:07:00,67.7,47.0,29.88,WSW,248,8.4,11.0,47,0.00,,---,0.01,VWS V14.01,2013-02-24 21:07:00,
2013-02-24 16:12:00,67.0,47.5,29.88,West,270,2.1,4.7,49,0.00,,---,0.01,VWS V14.01,2013-02-24 21:12:00,
2013-02-24 16:17:00,67.0,48.0,29.88,West,270,5.6,7.3,50,0.00,,---,0.01,VWS V14.01,2013-02-24 21:17:00,
2013-02-24 16:22:00,66.8,47.3,29.88,WSW,248,2.6,3.4,49,0.00,,---,0.01,VWS V14.01,2013-02-24 21:22:00,
2013-02-24 16:27:00,67.0,46.4,29.88,West,270,3.3,5.4,47,0.00,,---,0.01,VWS V14.01,2013-02-24 21:27:00,
2013-02-24 16:32:00,67.0,48.6,29.88,North,0,1.2,1.5,52,0.00,,---,0.01,VWS V14.01,2013-02-24 21:32:00,
2013-02-24 16:37:00,67.0,47.5,29.88,WNW,292,2.1,2.8,49,0.00,,---,0.01,VWS V14.01,2013-02-24 21:37:00,
2013-02-24 16:42:00,66.4,46.9,29.88,NW,315,2.1,2.8,49,0.00,,---,0.01,VWS V14.01,2013-02-24 21:42:00,
2013-02-24 16:47:00,66.4,48.0,29.88,SW,225,1.2,2.8,52,0.00,,---,0.01,VWS V14.01,2013-02-24 21:47:00,
2013-02-24 16:52:00,66.6,48.2,29.88,NW,315,1.5,1.9,52,0.00,,---,0.01,VWS V14.01,2013-02-24 21:52:00,
2013-02-24 16:57:00,66.6,48.7,29.88,NNW,338,1.2,1.5,53,0.00,,---,0.01,VWS V14.01,2013-02-24 21:57:00,
2013-02-24 17:02:00,66.1,47.8,29.88,SSW,202,2.6,3.4,52,0.00,,---,0.01,VWS V14.01,2013-02-24 22:02:00,
2013-02-24 17:07:00,65.2,46.9,29.88,NNW,338,2.1,2.8,52,0.00,,---,0.01,VWS V14.01,2013-02-24 22:07:00,
2013-02-24 17:12:00,64.6,46.8,29.88,WNW,292,0.7,0.9,53,0.00,,---,0.01,VWS V14.01,2013-02-24 22:12:00,
2013-02-24 17:17:00,63.3,47.1,29.88,WNW,292,0.3,1.5,56,0.00,,---,0.01,VWS V14.01,2013-02-24 22:17:00,
2013-02-24 17:22:00,62.9,47.2,29.88,WNW,292,0.0,0.0,57,0.00,,---,0.01,VWS V14.01,2013-02-24 22:22:00,
2013-02-24 17:27:00,62.0,46.9,29.89,WNW,292,0.0,0.9,58,0.00,,---,0.01,VWS V14.01,2013-02-24 22:27:00,
2013-02-24 17:32:00,61.9,47.3,29.89,NNE,22,0.0,0.0,59,0.00,,---,0.01,VWS V14.01,2013-02-24 22:32:00,
2013-02-24 17:37:00,61.5,47.4,29.89,North,0,0.0,0.0,60,0.00,,---,0.01,VWS V14.01,2013-02-24 22:37:00,
2013-02-24 17:42:00,60.8,47.2,29.89,WSW,248,0.0,0.0,61,0.00,,---,0.01,VWS V14.01,2013-02-24 22:42:00,
2013-02-24 17:47:00,59.7,46.6,29.89,WSW,248,0.0,0.0,62,0.00,,---,0.01,VWS V14.01,2013-02-24 22:47:00,
2013-02-24 17:52:00,59.2,46.6,29.89,WSW,248,0.0,0.0,63,0.00,,---,0.01,VWS V14.01,2013-02-24 22:52:00,
2013-02-24 17:57:00,58.6,46.4,29.89,WSW,248,0.0,0.0,64,0.00,,---,0.01,VWS V14.01,2013-02-24 22:57:00,
2013-02-24 18:02:00,58.1,46.0,29.89,WSW,248,0.0,0.0,64,0.00,,---,0.01,VWS V14.01,2013-02-24 23:02:00,
2013-02-24 18:07:00,57.0,45.8,29.90,WSW,248,0.0,0.0,66,0.00,,---,0.01,VWS V14.01,2013-02-24 23:07:00,
2013-02-24 18:12:00,56.6,45.8,29.90,WSW,248,0.0,0.0,67,0.00,,---,0.01,VWS V14.01,2013-02-24 23:12:00,
2013-02-24 18:17:00,56.1,45.7,29.90,WSW,248,0.0,0.0,68,0.00,,---,0.01,VWS V14.01,2013-02-24 23:17:00,
2013-02-24 18:22:00,55.6,46.0,29.90,WSW,248,0.0,0.0,70,0.00,,---,0.01,VWS V14.01,2013-02-24 23:22:00,
2013-02-24 18:27:00,54.3,45.2,29.91,WSW,248,0.0,0.0,71,0.00,,---,0.01,VWS V14.01,2013-02-24 23:27:00,
2013-02-24 18:32:00,53.9,45.1,29.91,WSW,248,0.0,0.0,72,0.00,,---,0.01,VWS V14.01,2013-02-24 23:32:00,
2013-02-24 18:37:00,53.5,45.1,29.91,WSW,248,0.0,0.0,73,0.00,,---,0.01,VWS V14.01,2013-02-24 23:37:00,
2013-02-24 18:42:00,52.8,44.4,29.92,WSW,248,0.0,0.0,73,0.00,,---,0.01,VWS V14.01,2013-02-24 23:42:00,
2013-02-24 18:47:00,52.8,44.4,29.92,WSW,248,0.0,0.0,73,0.00,,---,0.01,VWS V14.01,2013-02-24 23:47:00,
2013-02-24 18:52:00,52.8,44.4,29.92,WSW,248,0.0,0.0,73,0.00,,---,0.01,VWS V14.01,2013-02-24 23:52:00,
2013-02-24 18:57:00,51.3,43.7,29.92,WSW,248,0.0,0.0,75,0.00,,---,0.01,VWS V14.01,2013-02-24 23:57:00,
2013-02-24 19:02:00,51.2,43.6,29.93,WSW,248,0.0,0.0,75,0.00,,---,0.01,VWS V14.01,2013-02-25 00:02:00,
2013-02-24 19:08:00,51.2,43.6,29.93,WSW,248,0.0,0.0,75,0.00,,---,0.01,VWS V14.01,2013-02-25 00:08:00,
2013-02-24 19:12:00,51.2,43.6,29.93,WSW,248,0.0,0.0,75,0.00,,---,0.01,VWS V14.01,2013-02-25 00:12:00,
2013-02-24 19:18:00,49.9,43.1,29.93,WSW,248,0.0,0.0,77,0.00,,---,0.01,VWS V14.01,2013-02-25 00:18:00,
2013-02-24 19:23:00,49.4,42.9,29.93,WSW,248,0.0,0.0,78,0.00,,---,0.01,VWS V14.01,2013-02-25 00:23:00,
2013-02-24 19:28:00,49.0,42.9,29.94,WSW,248,0.0,0.0,79,0.00,,---,0.01,VWS V14.01,2013-02-25 00:28:00,
2013-02-24 19:33:00,48.8,42.7,29.94,WSW,248,0.0,0.0,79,0.00,,---,0.01,VWS V14.01,2013-02-25 00:33:00,
2013-02-24 19:38:00,48.3,42.5,29.94,WSW,248,0.0,0.0,80,0.00,,---,0.01,VWS V14.01,2013-02-25 00:38:00,
2013-02-24 19:43:00,48.1,42.4,29.94,WSW,248,0.0,0.0,80,0.00,,---,0.01,VWS V14.01,2013-02-25 00:43:00,
2013-02-24 19:48:00,47.7,42.3,29.95,WSW,248,0.0,0.0,81,0.00,,---,0.01,VWS V14.01,2013-02-25 00:48:00,
2013-02-24 19:53:00,47.6,42.2,29.95,WSW,248,0.0,0.0,81,0.00,,---,0.01,VWS V14.01,2013-02-25 00:53:00,
2013-02-24 19:58:00,47.4,42.0,29.95,WSW,248,0.0,0.0,81,0.00,,---,0.01,VWS V14.01,2013-02-25 00:58:00,
2013-02-24 20:03:00,47.0,42.0,29.95,WSW,248,0.0,0.0,82,0.00,,---,0.01,VWS V14.01,2013-02-25 01:03:00,
2013-02-24 20:08:00,46.8,41.8,29.96,WSW,248,0.0,0.0,82,0.00,,---,0.01,VWS V14.01,2013-02-25 01:08:00,
2013-02-24 20:13:00,46.7,41.7,29.96,WSW,248,0.0,0.0,82,0.00,,---,0.01,VWS V14.01,2013-02-25 01:13:00,
2013-02-24 20:18:00,46.1,41.4,29.96,WSW,248,0.0,0.0,83,0.00,,---,0.01,VWS V14.01,2013-02-25 01:18:00,
2013-02-24 20:23:00,45.9,41.2,29.96,WSW,248,0.0,0.0,83,0.00,,---,0.01,VWS V14.01,2013-02-25 01:23:00,
2013-02-24 20:28:00,45.9,41.2,29.96,WSW,248,0.0,0.0,83,0.00,,---,0.01,VWS V14.01,2013-02-25 01:28:00,
2013-02-24 20:33:00,45.6,40.9,29.96,WSW,248,0.0,0.0,83,0.00,,---,0.01,VWS V14.01,2013-02-25 01:33:00,
2013-02-24 20:38:00,45.4,41.0,29.96,WSW,248,0.0,0.0,84,0.00,,---,0.01,VWS V14.01,2013-02-25 01:38:00,
2013-02-24 20:43:00,45.2,40.8,29.96,WSW,248,0.0,0.0,84,0.00,,---,0.01,VWS V14.01,2013-02-25 01:43:00,
2013-02-24 20:48:00,45.0,41.0,29.96,WSW,248,0.0,0.0,85,0.00,,---,0.01,VWS V14.01,2013-02-25 01:48:00,
2013-02-24 20:53:00,45.0,40.9,29.96,WSW,248,0.0,0.0,85,0.00,,---,0.01,VWS V14.01,2013-02-25 01:53:00,
2013-02-24 20:58:00,44.5,40.5,29.96,WSW,248,0.0,0.0,85,0.00,,---,0.01,VWS V14.01,2013-02-25 01:58:00,
2013-02-24 21:03:00,44.5,40.5,29.96,WSW,248,0.0,0.0,85,0.00,,---,0.01,VWS V14.01,2013-02-25 02:03:00,
2013-02-24 21:08:00,44.2,40.1,29.96,WSW,248,0.0,0.0,85,0.00,,---,0.01,VWS V14.01,2013-02-25 02:08:00,
2013-02-24 21:13:00,44.1,40.3,29.96,WSW,248,0.0,0.0,87,0.00,,---,0.01,VWS V14.01,2013-02-25 02:13:00,
2013-02-24 21:18:00,43.9,40.1,29.97,NW,315,0.0,0.0,87,0.00,,---,0.01,VWS V14.01,2013-02-25 02:18:00,
2013-02-24 21:23:00,43.7,40.2,29.96,NW,315,0.0,0.0,88,0.00,,---,0.01,VWS V14.01,2013-02-25 02:23:00,
2013-02-24 21:28:00,43.5,40.9,29.97,West,270,0.3,0.4,91,0.00,,---,0.01,VWS V14.01,2013-02-25 02:28:00,
2013-02-24 21:33:00,43.3,40.1,29.97,West,270,0.0,0.0,89,0.00,,---,0.01,VWS V14.01,2013-02-25 02:33:00,
2013-02-24 21:38:00,43.2,40.3,29.97,West,270,0.0,0.0,90,0.00,,---,0.01,VWS V14.01,2013-02-25 02:38:00,
2013-02-24 21:43:00,43.2,40.0,29.97,West,270,0.0,0.0,89,0.00,,---,0.01,VWS V14.01,2013-02-25 02:43:00,
2013-02-24 21:48:00,43.0,39.8,29.97,West,270,0.0,0.0,89,0.00,,---,0.01,VWS V14.01,2013-02-25 02:48:00,
2013-02-24 21:53:00,42.6,39.4,29.97,West,270,0.0,0.0,89,0.00,,---,0.01,VWS V14.01,2013-02-25 02:53:00,
2013-02-24 21:58:00,42.4,39.2,29.98,West,270,0.0,0.0,89,0.00,,---,0.01,VWS V14.01,2013-02-25 02:58:00,
2013-02-24 22:03:00,42.4,39.2,29.98,West,270,0.0,0.0,89,0.00,,---,0.01,VWS V14.01,2013-02-25 03:03:00,
2013-02-24 22:08:00,42.3,39.2,29.97,West,270,0.0,0.0,89,0.00,,---,0.01,VWS V14.01,2013-02-25 03:08:00,
2013-02-24 22:13:00,42.1,39.0,29.97,West,270,0.0,0.0,89,0.00,,---,0.01,VWS V14.01,2013-02-25 03:13:00,
2013-02-24 22:18:00,41.9,39.0,29.97,West,270,0.0,0.0,90,0.00,,---,0.01,VWS V14.01,2013-02-25 03:18:00,
2013-02-24 22:23:00,41.5,38.7,29.97,West,270,0.0,0.0,90,0.00,,---,0.01,VWS V14.01,2013-02-25 03:23:00,
2013-02-24 22:28:00,41.4,38.6,29.98,West,270,0.0,0.0,90,0.00,,---,0.01,VWS V14.01,2013-02-25 03:28:00,
2013-02-24 22:33:00,41.2,38.4,29.98,West,270,0.0,0.0,90,0.00,,---,0.01,VWS V14.01,2013-02-25 03:33:00,
2013-02-24 22:38:00,41.2,38.4,29.98,West,270,0.0,0.0,90,0.00,,---,0.01,VWS V14.01,2013-02-25 03:38:00,
2013-02-24 22:43:00,41.0,38.5,29.98,West,270,0.0,0.0,91,0.00,,---,0.01,VWS V14.01,2013-02-25 03:43:00,
2013-02-24 22:48:00,41.0,38.2,29.98,West,270,0.0,0.0,90,0.00,,---,0.01,VWS V14.01,2013-02-25 03:48:00,
2013-02-24 22:53:00,40.8,38.0,29.98,West,270,0.0,0.0,90,0.00,,---,0.01,VWS V14.01,2013-02-25 03:53:00,
2013-02-24 22:58:00,40.5,37.7,29.98,West,270,0.0,0.0,90,0.00,,---,0.01,VWS V14.01,2013-02-25 03:58:00,
2013-02-24 23:03:00,40.3,37.5,29.98,West,270,0.0,0.0,90,0.00,,---,0.01,VWS V14.01,2013-02-25 04:03:00,
2013-02-24 23:08:00,40.3,37.5,29.98,West,270,0.0,0.0,90,0.00,,---,0.01,VWS V14.01,2013-02-25 04:08:00,
2013-02-24 23:13:00,40.1,37.3,29.98,West,270,0.0,0.0,90,0.00,,---,0.01,VWS V14.01,2013-02-25 04:13:00,
2013-02-24 23:18:00,39.9,37.1,29.98,West,270,0.0,0.0,90,0.00,,---,0.01,VWS V14.01,2013-02-25 04:18:00,
2013-02-24 23:23:00,39.7,36.9,29.98,West,270,0.0,0.0,90,0.00,,---,0.01,VWS V14.01,2013-02-25 04:23:00,
2013-02-24 23:28:00,39.6,36.8,29.98,West,270,0.0,0.0,90,0.00,,---,0.01,VWS V14.01,2013-02-25 04:28:00,
2013-02-24 23:33:00,39.4,36.6,29.98,West,270,0.0,0.0,90,0.00,,---,0.01,VWS V14.01,2013-02-25 04:33:00,
2013-02-24 23:38:00,39.4,36.6,29.98,West,270,0.0,0.0,90,0.00,,---,0.01,VWS V14.01,2013-02-25 04:38:00,
2013-02-24 23:43:00,39.0,36.8,29.99,West,270,0.0,0.0,92,0.00,,---,0.01,VWS V14.01,2013-02-25 04:43:00,
2013-02-24 23:48:00,39.0,36.5,29.98,West,270,0.0,0.0,91,0.00,,---,0.01,VWS V14.01,2013-02-25 04:48:00,
2013-02-24 23:53:00,38.8,36.3,29.98,West,270,0.0,0.0,91,0.00,,---,0.01,VWS V14.01,2013-02-25 04:53:00,
2013-02-24 23:58:00,38.8,36.3,29.98,West,270,0.0,0.0,91,0.00,,---,0.01,VWS V14.01,2013-02-25 04:58:00,